When you browse on this site, cookies collect data to enhance your experience and personalize the content and advertising you see.
Visit our Privacy Policy to learn more. By continuing to use the site, you agree to this use of cookies and data.
  • In Sweden
  • List of Countries
  • For 7 days
  • Water Temperature
  • Satellite Maps
  • Weather Map
  • Weather Widgets
  • user-avatar
    Login

    Hourly Weather Omel'kove

    Today, 22 April, Monday

    Time Temperature Precipitation Wind Pressure Humidity
    00:00 +10°C° 0 mm 1 mps 754 mmHg 50%
    01:00 +9°C° 0 mm 2 mps 754 mmHg 50%
    02:00 +8°C° 0 mm 2 mps 754 mmHg 51%
    03:00 +8°C° 0 mm 2 mps 754 mmHg 53%
    04:00 +7°C° 0 mm 2 mps 754 mmHg 55%
    05:00 +7°C° 0 mm 2 mps 755 mmHg 56%
    06:00 +8°C° 0 mm 2 mps 755 mmHg 53%
    07:00 +10°C° 0 mm 2 mps 755 mmHg 50%
    08:00 +12°C° 0 mm 2 mps 756 mmHg 47%
    09:00 +12°C° 0 mm 3 mps 756 mmHg 41%
    10:00 +14°C° 0 mm 3 mps 756 mmHg 35%
    11:00 +16°C° 0 mm 3 mps 756 mmHg 29%
    12:00 +16°C° 0 mm 3 mps 756 mmHg 29%
    13:00 +16°C° 0 mm 3 mps 756 mmHg 29%
    14:00 +17°C° 0 mm 2 mps 756 mmHg 28%
    15:00 +16°C° 0 mm 2 mps 756 mmHg 30%
    16:00 +16°C° 0 mm 2 mps 756 mmHg 31%
    17:00 +16°C° 0 mm 1 mps 756 mmHg 32%
    18:00 +15°C° 0 mm 1 mps 756 mmHg 36%
    19:00 +14°C° 0 mm 1 mps 756 mmHg 39%
    20:00 +12°C° 0 mm 0 mps 756 mmHg 42%
    21:00 +12°C° 0 mm 1 mps 756 mmHg 44%
    22:00 +12°C° 0 mm 1 mps 756 mmHg 45%
    23:00 +12°C° 0 mm 1 mps 757 mmHg 47%

    Tomorrow, 23 April, Tuesday

    Time Temperature Precipitation Wind Pressure Humidity
    00:00 +11°C° 0 mm 1 mps 757 mmHg 48%
    01:00 +11°C° 0 mm 1 mps 757 mmHg 49%
    02:00 +11°C° 0 mm 1 mps 757 mmHg 50%
    03:00 +10°C° 0 mm 2 mps 757 mmHg 51%
    04:00 +10°C° 0 mm 2 mps 757 mmHg 53%
    05:00 +9°C° 0 mm 2 mps 757 mmHg 55%
    06:00 +12°C° 0 mm 2 mps 757 mmHg 53%
    07:00 +13°C° 0 mm 2 mps 758 mmHg 51%
    08:00 +14°C° 0 mm 2 mps 758 mmHg 49%
    09:00 +15°C° 0 mm 2 mps 758 mmHg 44%
    10:00 +16°C° 0 mm 2 mps 758 mmHg 39%
    11:00 +17°C° 0 mm 2 mps 758 mmHg 34%
    12:00 +17°C° 0 mm 2 mps 758 mmHg 34%
    13:00 +17°C° 0 mm 2 mps 757 mmHg 34%
    14:00 +18°C° 0 mm 1 mps 757 mmHg 33%
    15:00 +18°C° 0 mm 1 mps 757 mmHg 35%
    16:00 +18°C° 0 mm 1 mps 757 mmHg 36%
    17:00 +18°C° 0 mm 1 mps 757 mmHg 38%
    18:00 +16°C° 0 mm 1 mps 757 mmHg 41%
    19:00 +14°C° 0 mm 1 mps 757 mmHg 44%
    20:00 +12°C° 0 mm 1 mps 757 mmHg 47%
    21:00 +11°C° 0 mm 0 mps 757 mmHg 48%
    22:00 +10°C° 0 mm 0 mps 757 mmHg 49%
    23:00 +10°C° 0 mm 0 mps 757 mmHg 50%

    Day after tomorrow, 24 April, Wednesday

    Time Temperature Precipitation Wind Pressure Humidity
    00:00 +10°C° 0 mm 0 mps 757 mmHg 51%
    01:00 +9°C° 0 mm 0 mps 758 mmHg 53%
    02:00 +9°C° 0 mm 0 mps 758 mmHg 54%
    03:00 +9°C° 0 mm 0 mps 758 mmHg 55%
    04:00 +8°C° 0 mm 0 mps 758 mmHg 57%
    05:00 +8°C° 0 mm 0 mps 758 mmHg 59%
    06:00 +11°C° 0 mm 1 mps 758 mmHg 55%
    07:00 +13°C° 0 mm 1 mps 758 mmHg 51%
    08:00 +15°C° 0 mm 1 mps 758 mmHg 48%
    09:00 +16°C° 0 mm 1 mps 758 mmHg 44%
    10:00 +18°C° 0 mm 1 mps 758 mmHg 40%
    11:00 +19°C° 0 mm 1 mps 758 mmHg 36%
    12:00 +20°C° 0 mm 1 mps 758 mmHg 36%
    13:00 +20°C° 0 mm 1 mps 758 mmHg 35%
    14:00 +21°C° 0 mm 1 mps 758 mmHg 34%
    15:00 +20°C° 0 mm 1 mps 757 mmHg 36%
    16:00 +20°C° 0 mm 1 mps 757 mmHg 38%
    17:00 +18°C° 0 mm 0 mps 757 mmHg 40%
    18:00 +16°C° 0 mm 0 mps 757 mmHg 43%
    19:00 +16°C° 0 mm 1 mps 757 mmHg 47%
    20:00 +14°C° 0 mm 1 mps 757 mmHg 50%
    21:00 +14°C° 0 mm 1 mps 757 mmHg 52%
    22:00 +13°C° 0 mm 1 mps 757 mmHg 54%
    23:00 +13°C° 0 mm 2 mps 757 mmHg 56%

    25 April, Thursday

    Time Temperature Precipitation Wind Pressure Humidity
    00:00 +12°C° 0 mm 2 mps 757 mmHg 57%
    01:00 +12°C° 0 mm 2 mps 757 mmHg 59%
    02:00 +10°C° 0 mm 2 mps 757 mmHg 61%
    03:00 +10°C° 0 mm 2 mps 757 mmHg 62%
    04:00 +10°C° 0 mm 2 mps 757 mmHg 64%
    05:00 +9°C° 0 mm 2 mps 757 mmHg 66%
    06:00 +12°C° 0 mm 2 mps 758 mmHg 62%
    07:00 +14°C° 0 mm 2 mps 758 mmHg 58%
    08:00 +16°C° 0 mm 2 mps 758 mmHg 54%
    09:00 +17°C° 0 mm 2 mps 758 mmHg 50%
    10:00 +20°C° 0 mm 1 mps 758 mmHg 46%
    11:00 +21°C° 0 mm 1 mps 758 mmHg 43%
    12:00 +22°C° 0 mm 1 mps 757 mmHg 42%
    13:00 +21°C° 0 mm 0 mps 757 mmHg 41%
    14:00 +21°C° 0 mm 0 mps 757 mmHg 40%
    15:00 +21°C° 0 mm 0 mps 756 mmHg 43%
    16:00 +20°C° 0 mm 0 mps 756 mmHg 47%
    17:00 +21°C° 0 mm 1 mps 756 mmHg 50%
    18:00 +20°C° 0 mm 1 mps 756 mmHg 52%
    19:00 +19°C° 0 mm 1 mps 756 mmHg 54%
    20:00 +16°C° 0 mm 1 mps 756 mmHg 56%
    21:00 +16°C° 0 mm 1 mps 756 mmHg 58%
    22:00 +15°C° 0 mm 1 mps 755 mmHg 60%
    23:00 +15°C° 0 mm 1 mps 755 mmHg 61%

    26 April, Friday

    Time Temperature Precipitation Wind Pressure Humidity
    00:00 +14°C° 0 mm 1 mps 755 mmHg 63%
    01:00 +14°C° 0 mm 1 mps 755 mmHg 64%
    02:00 +13°C° 0 mm 1 mps 755 mmHg 66%
    03:00 +13°C° 0 mm 1 mps 755 mmHg 67%
    04:00 +13°C° 0 mm 1 mps 755 mmHg 69%
    05:00 +13°C° 0 mm 1 mps 755 mmHg 70%
    06:00 +15°C° 0 mm 1 mps 755 mmHg 65%
    07:00 +16°C° 0 mm 1 mps 755 mmHg 60%
    08:00 +19°C° 0 mm 1 mps 755 mmHg 55%
    09:00 +20°C° 0 mm 1 mps 755 mmHg 51%
    10:00 +21°C° 0 mm 2 mps 754 mmHg 47%
    11:00 +23°C° 0 mm 2 mps 754 mmHg 44%
    12:00 +23°C° 0 mm 2 mps 754 mmHg 45%
    13:00 +23°C° 0 mm 2 mps 753 mmHg 46%
    14:00 +23°C° 0 mm 2 mps 753 mmHg 47%
    15:00 +21°C° 0 mm 2 mps 753 mmHg 48%
    16:00 +21°C° 0 mm 2 mps 753 mmHg 50%
    17:00 +21°C° 0 mm 2 mps 752 mmHg 51%
    18:00 +20°C° 0 mm 2 mps 752 mmHg 55%
    19:00 +18°C° 0 mm 2 mps 752 mmHg 58%
    20:00 +17°C° 0 mm 2 mps 752 mmHg 62%
    21:00 +16°C° 0 mm 2 mps 752 mmHg 64%
    22:00 +16°C° 0 mm 2 mps 752 mmHg 65%
    23:00 +15°C° 0 mm 2 mps 751 mmHg 67%

    27 April, Saturday

    Time Temperature Precipitation Wind Pressure Humidity
    00:00 +15°C° 0 mm 2 mps 751 mmHg 68%
    01:00 +14°C° 0 mm 2 mps 751 mmHg 68%
    02:00 +14°C° 0 mm 2 mps 751 mmHg 69%
    03:00 +14°C° 0 mm 1 mps 751 mmHg 70%
    04:00 +13°C° 0 mm 1 mps 751 mmHg 72%
    05:00 +13°C° 0 mm 1 mps 751 mmHg 73%
    06:00 +15°C° 0 mm 1 mps 751 mmHg 67%
    07:00 +18°C° 0 mm 1 mps 751 mmHg 62%
    08:00 +20°C° 0 mm 1 mps 752 mmHg 56%
    09:00 +20°C° 0 mm 2 mps 751 mmHg 51%
    10:00 +21°C° 0 mm 2 mps 751 mmHg 47%
    11:00 +22°C° 0 mm 3 mps 751 mmHg 42%
    12:00 +22°C° 0 mm 3 mps 751 mmHg 42%
    13:00 +22°C° 0 mm 3 mps 751 mmHg 41%
    14:00 +22°C° 0 mm 3 mps 750 mmHg 41%
    15:00 +23°C° 0 mm 2 mps 750 mmHg 44%
    16:00 +21°C° 0 mm 2 mps 750 mmHg 46%
    17:00 +21°C° 0 mm 2 mps 750 mmHg 49%
    18:00 +20°C° 0 mm 2 mps 750 mmHg 50%
    19:00 +19°C° 0 mm 2 mps 750 mmHg 51%
    20:00 +18°C° 0 mm 2 mps 750 mmHg 53%
    21:00 +18°C° 0 mm 2 mps 750 mmHg 53%
    22:00 +17°C° 0 mm 2 mps 750 mmHg 54%
    23:00 +17°C° 0 mm 2 mps 750 mmHg 55%
    Show more